Weather History for LICZ - July, 2013

Change the Weather History Date:

Thursday, July 18, 2013

  Actual Average Record
Temperature  
Mean Temperature 78 °F -  
Max Temperature 89 °F 92 °F 102 °F (2005)
Min Temperature 66 °F 67 °F 62 °F (2004)
Cooling Degree Days 12    
Growing Degree Days 28 (Base 50)    
Moisture  
Dew Point 67 °F    
Average Humidity 73    
Maximum Humidity 100    
Minimum Humidity 31    
Precipitation  
Precipitation 0.00 in 0.01 in - ()
Sea Level Pressure  
Sea Level Pressure 30.05 in    
Wind  
Wind Speed 6 mph ()    
Max Wind Speed 16 mph    
Max Gust Speed -    
Visibility 6.2 miles    
Events      
Averages and records for this station are not official NWS values.
T = Trace of Precipitation, MM = Missing Value Source: Averaged Metar Reports

Daily Weather History Graph

Daily Weather History Graph

Search for Another Location

Airport or City:

Trip Planner

Search our weather history database for the weather conditions in past years. The results will help you decide how hot, cold, wet, or windy it might be!

Date:

Astronomy

Jul. 18, 2013 Rise Set
Actual Time 5:53 AM CEST 8:19 PM CEST
Civil Twilight 5:23 AM CEST 8:49 PM CEST
Nautical Twilight 4:46 AM CEST 9:26 PM CEST
Astronomical Twilight 4:05 AM CEST 10:06 PM CEST
Moon 3:57 PM CEST (7/18) 1:29 AM CEST (7/18)
Length of Visible Light 15h 25m
Length of Day
14h 25m
Waxing Gibbous, 75% of the Moon is Illuminated
Jul 18
Waxing Gibbous
Jul 22
Full
Jul 29
Last Quarter
Aug 6
New
Aug 14
First Quarter

Hourly Weather History & Observations

Time (CEST) Temp. Heat Index Dew Point Humidity Pressure Visibility Wind Dir Wind Speed Gust Speed Precip Events Conditions
12:55 AM 73.4 °F - 73.4 °F 100% 30.06 in - ENE 3.5 mph - N/A   Clear
1:55 AM 71.6 °F - 71.6 °F 100% 30.06 in - West 1.2 mph - N/A   Clear
2:00 AM 72 °F - 72 °F 100% 30.09 in 6 mi West 1.2 mph - -  
2:55 AM 69.8 °F - 69.8 °F 100% 30.06 in - West 4.6 mph - N/A   Clear
3:55 AM 69.8 °F - 69.8 °F 100% 30.06 in - West 4.6 mph - N/A   Clear
4:55 AM 68.0 °F - 68.0 °F 100% 30.06 in - WNW 4.6 mph - N/A   Clear
5:00 AM 68 °F - 68 °F 100% 30.07 in 6 mi WNW 4.6 mph - -  
5:55 AM 68.0 °F - 68.0 °F 100% 30.06 in - West 9.2 mph - N/A   Clear
6:55 AM 66.2 °F - 62.6 °F 88% 30.06 in - West 4.6 mph - N/A   Clear
7:55 AM 68.0 °F - 60.8 °F 78% 30.06 in - WNW 4.6 mph - N/A   Clear
8:00 AM 69 °F - 60 °F 66% 30.08 in 6 mi WNW 4.6 mph - -  
8:55 AM 78.8 °F - 73.4 °F 83% 30.06 in 6.2 mi SW 2.3 mph - N/A   Partly Cloudy
9:55 AM 80.6 °F 83.9 °F 69.8 °F 70% 30.06 in 6.2 mi ESE 4.6 mph - N/A   Partly Cloudy
10:55 AM 84.2 °F 86.6 °F 66.2 °F 55% 30.06 in 6.2 mi SSE 4.6 mph - N/A   Partly Cloudy
11:00 AM 84 °F - 67 °F 46% 30.08 in 6 mi SSE 4.6 mph - -   Scattered Clouds
11:55 AM 87.8 °F 91.4 °F 68.0 °F 52% 30.04 in 6.2 mi ESE 9.2 mph - N/A   Partly Cloudy
12:55 PM 87.8 °F 89.4 °F 64.4 °F 46% 30.04 in 6.2 mi East 13.8 mph - N/A   Scattered Clouds
1:55 PM 86.0 °F 86.6 °F 62.6 °F 45% 30.04 in 6.2 mi East 11.5 mph - N/A   Scattered Clouds
2:00 PM 87 °F - 62 °F 33% 30.04 in 7 mi East 11.5 mph - -   Partly Cloudy
2:55 PM 86.0 °F 86.1 °F 60.8 °F 43% 30.01 in 6.2 mi East 16.1 mph - N/A   Scattered Clouds
3:55 PM 86.0 °F 85.4 °F 59.0 °F 40% 30.01 in 6.2 mi East 16.1 mph - N/A   Scattered Clouds
4:55 PM 82.4 °F 82.0 °F 57.2 °F 42% 30.04 in 6.2 mi East 13.8 mph - N/A   Mostly Cloudy
5:00 PM 83 °F - 57 °F 31% 30.03 in 6 mi East 13.8 mph - -   Mostly Cloudy
5:55 PM 82.4 °F 84.6 °F 66.2 °F 58% 30.04 in 6.2 mi East 13.8 mph - N/A   Mostly Cloudy
6:55 PM 80.6 °F 84.6 °F 71.6 °F 74% 30.04 in 6.2 mi NE 11.5 mph - N/A   Mostly Cloudy
7:55 PM 80.6 °F 84.6 °F 71.6 °F 74% 30.04 in 6.2 mi ENE 11.5 mph - N/A   Mostly Cloudy
8:00 PM 80 °F - 72 °F 69% 30.05 in 6 mi ENE 11.5 mph - -   Mostly Cloudy
8:55 PM 77.0 °F - 73.4 °F 89% 30.04 in 6.2 mi ENE 9.2 mph - N/A   Scattered Clouds
9:55 PM 75.2 °F - 73.4 °F 94% 30.06 in 6.2 mi NE 4.6 mph - N/A   Partly Cloudy
10:55 PM 75.2 °F - 71.6 °F 89% 30.06 in 6.2 mi West 2.3 mph - N/A   Partly Cloudy
11:55 PM 73.4 °F - 71.6 °F 94% 30.06 in - West 4.6 mph - N/A   Clear